Weather History for PAAK - December, 2012

Change the Weather History Date:

Wednesday, December 5, 2012

  Actual Average (PADK) Record (PADK)
Temperature  
Mean Temperature 34 °F -  
Max Temperature 35 °F 38 °F 52 °F (1954)
Min Temperature 32 °F 30 °F 19 °F (1949)
Degree Days  
Heating Degree Days 32    
Moisture  
Dew Point -15 °F    
Average Humidity 12    
Maximum Humidity 13    
Minimum Humidity 11    
Precipitation  
Precipitation 0.00 in - - ()
Sea Level Pressure  
Sea Level Pressure 29.98 in    
Wind  
Wind Speed 8 mph (East)    
Max Wind Speed 20 mph    
Max Gust Speed 23 mph    
Visibility 9 miles    
Events      
Averages and records for this station are not official NWS values.
T = Trace of Precipitation, MM = Missing Value Source: NWS Daily Summary

Daily Weather History Graph

Daily Weather History Graph

Search for Another Location

Airport or City:

Trip Planner

Search our weather history database for the weather conditions in past years. The results will help you decide how hot, cold, wet, or windy it might be!

Date:

Astronomy

Dec. 05, 2012 Rise Set
Actual Time 9:29 AM HST 5:25 PM HST
Civil Twilight 8:49 AM HST 6:05 PM HST
Nautical Twilight 8:06 AM HST 6:49 PM HST
Astronomical Twilight 7:24 AM HST 7:30 PM HST
Moon 12:00 AM HST (12/5) 1:22 PM HST (12/5)
Length of Visible Light 9h 16m
Length of Day
7h 55m
Waning Gibbous, 58% of the Moon is Illuminated
Dec 5
Waning Gibbous
Dec 6
Last Quarter
Dec 12
New
Dec 19
First Quarter
Dec 28
Full

Hourly Weather History & Observations

Time (HST) Temp. Windchill Dew Point Humidity Pressure Visibility Wind Dir Wind Speed Gust Speed Precip Events Conditions
12:16 AM 35.6 °F 28.6 °F -13.0 °F 12% 29.89 in 10.0 mi WNW 9.2 mph - N/A   Overcast
12:36 AM 35.6 °F 29.9 °F -13.0 °F 12% 29.90 in 10.0 mi WNW 6.9 mph - N/A   Overcast
12:56 AM 35.6 °F 28.0 °F -13.0 °F 12% 29.90 in 10.0 mi WNW 10.4 mph - N/A   Overcast
1:16 AM 35.6 °F 29.2 °F -14.8 °F 11% 29.90 in 10.0 mi West 8.1 mph - N/A   Overcast
1:36 AM 33.8 °F 28.6 °F -14.8 °F 12% 29.91 in 10.0 mi WNW 5.8 mph - N/A   Mostly Cloudy
1:56 AM 33.8 °F 29.6 °F -14.8 °F 12% 29.91 in 10.0 mi WNW 4.6 mph - N/A   Scattered Clouds
2:16 AM 32.0 °F - -14.8 °F 13% 29.91 in 10.0 mi Calm Calm - N/A   Scattered Clouds
2:36 AM 32.0 °F - -16.6 °F 12% 29.91 in 10.0 mi Calm Calm - N/A   Overcast
2:56 AM 33.8 °F 27.7 °F -14.8 °F 12% 29.91 in 10.0 mi South 6.9 mph - N/A   Overcast
4:36 AM 32.0 °F - -16.6 °F 12% 29.92 in 10.0 mi Calm Calm - N/A   Overcast
4:56 AM 32.0 °F - -16.6 °F 12% 29.92 in 10.0 mi Calm Calm - N/A   Overcast
5:16 AM 32.0 °F - -16.6 °F 12% 29.92 in 10.0 mi Calm Calm - N/A   Overcast
5:36 AM 32.0 °F - -16.6 °F 12% 29.92 in 10.0 mi Calm Calm - N/A   Overcast
5:56 AM 33.8 °F - -14.8 °F 12% 29.93 in 10.0 mi Calm Calm - N/A   Overcast
6:16 AM 33.8 °F - -14.8 °F 12% 29.93 in 10.0 mi Calm Calm - N/A   Overcast
6:36 AM 33.8 °F - -14.8 °F 12% 29.93 in 10.0 mi Calm Calm - N/A   Overcast
6:56 AM 33.8 °F - -14.8 °F 12% 29.94 in 10.0 mi Calm Calm - N/A   Overcast
7:16 AM 33.8 °F - -14.8 °F 12% 29.94 in 10.0 mi Calm Calm - N/A   Overcast
7:36 AM 33.8 °F 30.8 °F -14.8 °F 12% 29.94 in 10.0 mi South 3.5 mph - N/A   Overcast
7:56 AM 33.8 °F 30.8 °F -14.8 °F 12% 29.95 in 10.0 mi SE 3.5 mph - N/A   Overcast
8:16 AM 33.8 °F 26.4 °F -14.8 °F 12% 29.95 in 10.0 mi East 9.2 mph - N/A   Overcast
8:36 AM 33.8 °F 30.8 °F -14.8 °F 12% 29.96 in 4.0 mi NE 3.5 mph - N/A   Overcast
8:56 AM 33.8 °F - -14.8 °F 12% 29.96 in 2.5 mi Calm Calm - N/A   Overcast
9:16 AM 33.8 °F - -14.8 °F 12% 29.96 in 5.0 mi Calm Calm - N/A   Overcast
9:36 AM 33.8 °F 26.4 °F -14.8 °F 12% 29.97 in 3.0 mi East 9.2 mph - N/A   Overcast
9:56 AM 33.8 °F 25.8 °F -14.8 °F 12% 29.97 in 10.0 mi East 10.4 mph - N/A   Overcast
10:16 AM 33.8 °F 25.8 °F -14.8 °F 12% 29.98 in 10.0 mi East 10.4 mph - N/A   Mostly Cloudy
10:36 AM 33.8 °F 25.3 °F -14.8 °F 12% 29.98 in 10.0 mi East 11.5 mph - N/A   Overcast
10:56 AM 33.8 °F 24.8 °F -14.8 °F 12% 29.98 in 8.0 mi East 12.7 mph - N/A   Overcast
11:16 AM 33.8 °F 24.8 °F -14.8 °F 12% 29.99 in 5.0 mi East 12.7 mph - N/A   Overcast
11:36 AM 33.8 °F 24.8 °F -14.8 °F 12% 29.99 in 5.0 mi East 12.7 mph - N/A   Overcast
11:56 AM 33.8 °F 24.8 °F -14.8 °F 12% 30.00 in 5.0 mi ESE 12.7 mph - N/A   Overcast
12:16 PM 33.8 °F 25.3 °F -14.8 °F 12% 30.00 in 4.0 mi ESE 11.5 mph - N/A   Overcast
12:36 PM 33.8 °F 24.8 °F -14.8 °F 12% 30.00 in 10.0 mi East 12.7 mph - N/A   Overcast
12:56 PM 33.8 °F 25.8 °F -14.8 °F 12% 30.00 in 10.0 mi East 10.4 mph - N/A   Overcast
1:16 PM 33.8 °F 24.3 °F -14.8 °F 12% 30.00 in 10.0 mi East 13.8 mph - N/A   Overcast
1:36 PM 35.6 °F 26.2 °F - N/A% 30.00 in 10.0 mi East 15.0 mph - N/A   Mostly Cloudy
1:56 PM 35.6 °F 25.9 °F -14.8 °F 11% 30.00 in 10.0 mi East 16.1 mph - N/A   Overcast
2:16 PM 33.8 °F 23.5 °F - N/A% 30.00 in 9.0 mi East 16.1 mph - N/A   Mostly Cloudy
2:36 PM 33.8 °F 24.3 °F -14.8 °F 12% 30.01 in 10.0 mi East 13.8 mph - N/A   Mostly Cloudy
2:56 PM 33.8 °F 24.3 °F -14.8 °F 12% 30.01 in 9.0 mi East 13.8 mph - N/A   Overcast
3:16 PM 33.8 °F 24.3 °F -14.8 °F 12% 30.00 in 10.0 mi East 13.8 mph - N/A   Overcast
3:36 PM 33.8 °F 23.9 °F -14.8 °F 12% 30.00 in 10.0 mi East 15.0 mph 18.4 mph N/A   Overcast
3:56 PM 33.8 °F 23.5 °F -14.8 °F 12% 30.00 in 10.0 mi East 16.1 mph - N/A   Overcast
4:16 PM 33.8 °F 23.9 °F -14.8 °F 12% 30.00 in 10.0 mi East 15.0 mph - N/A   Overcast
4:36 PM 33.8 °F 23.2 °F -14.8 °F 12% 30.00 in 10.0 mi East 17.3 mph - N/A   Overcast
4:56 PM 33.8 °F 23.2 °F -14.8 °F 12% 30.00 in 10.0 mi East 17.3 mph 21.9 mph N/A   Overcast
5:16 PM 33.8 °F 23.5 °F -14.8 °F 12% 30.01 in 10.0 mi East 16.1 mph - N/A   Overcast
5:36 PM 33.8 °F 23.2 °F -14.8 °F 12% 30.01 in 10.0 mi East 17.3 mph 23.0 mph N/A   Overcast
5:56 PM 33.8 °F 23.2 °F -14.8 °F 12% 30.02 in 10.0 mi East 17.3 mph - N/A   Overcast
6:16 PM 33.8 °F 22.8 °F -14.8 °F 12% 30.02 in 10.0 mi East 18.4 mph - N/A   Overcast
6:36 PM 33.8 °F 22.5 °F -14.8 °F 12% 30.02 in 10.0 mi East 19.6 mph - N/A   Overcast
6:56 PM 33.8 °F 22.8 °F -14.8 °F 12% 30.02 in 10.0 mi East 18.4 mph - N/A   Overcast
7:16 PM 33.8 °F 23.9 °F -14.8 °F 12% 30.02 in 10.0 mi East 15.0 mph 20.7 mph N/A   Overcast
7:36 PM 33.8 °F 24.8 °F -14.8 °F 12% 30.03 in 10.0 mi East 12.7 mph - N/A   Overcast
7:56 PM 33.8 °F 24.3 °F -14.8 °F 12% 30.03 in 10.0 mi East 13.8 mph 18.4 mph N/A   Overcast
8:16 PM 33.8 °F 25.3 °F -14.8 °F 12% 30.04 in 10.0 mi East 11.5 mph - N/A   Overcast
8:36 PM 33.8 °F 25.3 °F -14.8 °F 12% 30.03 in 10.0 mi East 11.5 mph 16.1 mph N/A   Overcast
8:56 PM 33.8 °F 25.3 °F -14.8 °F 12% 30.03 in 10.0 mi East 11.5 mph - N/A   Overcast
9:16 PM 33.8 °F 24.3 °F -16.6 °F 11% 30.04 in 10.0 mi ENE 13.8 mph 18.4 mph N/A   Overcast
9:36 PM 33.8 °F 25.8 °F -16.6 °F 11% 30.04 in 10.0 mi East 10.4 mph - N/A   Overcast
9:56 PM 33.8 °F 25.3 °F -16.6 °F 11% 30.05 in 10.0 mi East 11.5 mph 17.3 mph N/A   Overcast
10:16 PM 33.8 °F 24.3 °F -16.6 °F 11% 30.05 in 10.0 mi East 13.8 mph 19.6 mph N/A   Overcast
10:36 PM 33.8 °F 23.5 °F -16.6 °F 11% 30.06 in 10.0 mi East 16.1 mph - N/A   Overcast
10:56 PM 32.0 °F 21.2 °F -16.6 °F 12% 30.06 in 10.0 mi East 16.1 mph - N/A   Overcast
11:16 PM 32.0 °F 22.1 °F -16.6 °F 12% 30.06 in 10.0 mi East 13.8 mph 21.9 mph N/A   Overcast
11:36 PM 32.0 °F 21.6 °F -16.6 °F 12% 30.06 in 10.0 mi East 15.0 mph 20.7 mph N/A   Overcast
11:56 PM 32.0 °F 23.0 °F -16.6 °F 12% 30.06 in 10.0 mi East 11.5 mph - N/A   Overcast